Find Starlink 1817

NORAD ID: 46715 Int'l Des: 2020-073 Owner: SPXS Country: US Constellation: starlink operational
LEOCIRCULAR

現在のビュー

3D地球を読み込み中...

About Starlink 1817

Starlink 1817 (NORAD 46715) is a starlink constellation satellite (v1.0) launched Oct 18, 2020 by SPXS of US. It operates in LEO, CIRCULAR orbit with a mass of 260.00 kg.

Starlink 1817について

説明を読み込み中...

次回通過

Passes for default location (London). Set your location on the main map for personalized predictions.

高度履歴

Loading altitude history...

軌道要素

1 46715U 20073AX 26173.81668686 .00244029 33812-4 67628-3 0 9997
2 46715 53.0405 54.7048 0005785 237.1819 122.8651 15.93371428314024
Epoch: Jun 22, 2026 • Age: 28 hours

現在のステータス

高度 293.3 km
速度 7.74 km/s
衛星直下点 28.63°N, 56.81°W
打ち上げ日 Oct 18, 2020
運用期間 5.6 years
タイプ internet

技術仕様

分類 Payload
質量 260.00 kg
乾燥質量 248.00 kg
総質量 260.00 kg
長さ 0.20 m
直径 2.80 m
スパン 9.00 m
形状 Box + pan
製造者 SPXS
バスタイプ Starlink
フェーズステータス In Orbit
所有者/国 SPXS/US

Most Searched